Location: Fazenda Monte Alegre
(4.8500°S, 38.0333°W)
Time: 17:10:41
(UTC+00:00)

Daily predictions for brighter satellites

Satellite Brightness Start Highest point End
(mag) Time Altitude Azimuth Time Altitude Azimuth Time Altitude Azimuth
NOSS 3-2 (A) 4.3 20:40:44 10° NNW 20:49:18 78° ENE 20:57:46 10° SSE
NOAA 12 4.1 20:48:46 10° SSE 20:54:08 79° ENE 20:59:26 10° N
SEDSat Delta rocket 4.4 20:47:30 10° SW 20:54:09 57° SSE 21:00:43 10° ENE
Cosmos 1844 3.8 20:48:57 10° N 20:54:22 54° ENE 20:59:46 10° SSE
USA 238 DEB 4.1 20:47:15 10° NNW 20:54:44 84° WSW 21:02:14 10° SSE
USA 238 4.1 20:47:21 10° NNW 20:54:51 85° WSW 21:02:21 10° SSE
ARIANE 5 DEB (SYLDA) 3.9 20:51:51 10° WNW 20:55:05 48° NNE 21:05:02 10° E
ATLAS 3B CENTAUR R/B 3.2 20:50:02 10° SW 20:55:35 76° SSE 21:09:30 10° ENE
Cosmos 1140 Rocket 3.5 20:51:22 10° S 20:56:28 66° ESE 21:01:32 10° NNE
Gbstr 26 Del rocket 4.5 20:51:21 10° SSW 20:59:26 73° SE 21:06:33 10° NE
Aurora 2 Rocket 3.8 20:59:41 10° N 21:01:03 12° NNE 21:02:25 10° NE
Delta 168 2.5 20:58:07 10° WNW 21:01:52 73° SSW 21:04:59 10° ESE
Cosmos 2026 Rocket 4.2 20:56:11 10° S 21:02:23 80° W 21:08:29 10° N
FengYun 1-2 T 4.3 20:59:06 10° SSE 21:04:29 53° ENE 21:09:48 10° N
CSL-04 Rocket 4.4 21:00:11 10° SE 21:04:46 29° ENE 21:09:17 10° NNE
Cosmos 1500 3.2 21:01:14 10° N 21:04:57 87° W 21:08:42 10° S
YAOGAN 6 2.4 21:02:56 10° SSE 21:06:24 64° E 21:09:50 10° N
Cosmos 1908 Rocket 4.3 21:03:22 10° NNE 21:07:14 32° E 21:11:06 10° SSE
Cosmos 1655 Rocket 4.3 21:03:35 10° SSE 21:09:42 47° E 21:15:44 10° NNE
Cosmos 2221 Rocket 3.8 21:08:26 10° S 21:12:54 55° E 21:17:19 10° NNE
Orbus 7S 3.2 21:08:28 10° WSW 21:13:19 63° NNW 21:15:25 15° NE
ARIANE 3 DEB 1.5 21:11:38 10° W 21:13:49 76° N 21:16:01 15° E
Cosmos 1844 Rocket 3.2 21:09:20 10° NNW 21:14:50 64° WSW 21:20:25 10° S
NATO 3D Rocket 4.0 21:10:23 10° W 21:14:58 52° SSW 21:19:54 10° ESE
Cosmos 1939 Rocket 4.1 21:12:12 10° SE 21:15:28 22° E 21:18:42 10° NNE
Cosmos 304 Rocket 3.7 21:11:02 10° N 21:15:48 71° ENE 21:20:36 10° SSE
Ariane Rocket 4.5 21:15:31 10° ESE 21:18:22 15° ENE 21:19:13 14° ENE
STARLINK-61 3.9 21:20:59 10° SSW 21:24:51 47° SE 21:27:17 20° ENE
Cosmos 1515 3.9 21:21:12 10° S 21:24:52 49° E 21:28:18 11° NNE
Sylda 5 4.1 21:21:43 10° W 21:26:41 82° S 22:00:06 10° E
Sylda 5 4.1 21:21:43 10° W 21:26:41 82° S 22:00:05 10° E
Sylda 5 4.1 21:21:43 10° W 21:26:42 82° S 22:00:05 10° E
Sylda 5 4.1 21:21:43 10° W 21:26:42 82° S 22:00:06 10° E
USA 267 3.4 21:21:04 10° SE 21:27:19 48° NE 21:33:32 10° NNW
Meteor 1-19 Rocket 4.3 21:21:39 10° S 21:27:30 88° W 21:33:09 10° N
CENTAUR R/B 3.2 21:20:12 10° NNW 21:28:52 70° ENE 21:37:01 10° SSE
NOAA 11 4.4 21:26:42 10° SSE 21:31:52 45° ENE 21:37:00 10° N
CZ-4C R/B 1.6 21:27:24 10° SSW 21:32:02 71° ESE 21:35:23 18° NNE
ARIANE 5 R/B 3.4 21:29:36 10° W 21:33:27 74° N 21:39:41 19° ENE
IRIDIUM 114 4.5 21:29:45 10° SSE 21:34:49 52° E 21:39:52 10° NNE
Cosmos 676 Rocket 4.5 21:29:53 10° SSW 21:35:01 61° WNW 21:40:07 10° N
GPS 2-14 Rocket1 2.9 21:32:18 10° W 21:36:04 52° NNW 21:37:47 28° NE
STARLINK-57 4.5 21:33:24 10° S 21:37:01 32° SE 21:38:16 26° E
ARIANE 5 DEB (SYLDA) 3.8 21:30:30 10° W 21:37:11 32° NNW 21:38:29 23° NNE
Cosmos 1943 3.4 21:32:41 10° S 21:38:12 52° ESE 21:41:48 21° NE
STARLINK-27 4.5 21:36:24 10° S 21:40:02 32° SE 21:41:05 28° E
Sich 1 Rocket 4.3 21:39:20 27° ENE 21:40:20 30° E 21:44:13 10° SSE
STARLINK-74 4.4 21:38:13 10° S 21:41:54 34° SE 21:42:55 29° E
CZ-4 R/B 2.4 21:38:52 10° S 21:42:52 49° WSW 21:46:46 10° NNW
STARLINK-39 4.3 21:39:50 10° SSW 21:43:34 36° SE 21:44:31 31° E
IRIDIUM 103 4.2 21:38:45 10° S 21:43:57 68° E 21:49:02 10° N
STARLINK 4.2 21:41:25 10° SSW 21:45:12 38° SE 21:46:06 33° E
Cosmos 1461 3.6 21:42:24 10° S 21:46:06 32° ESE 21:46:32 31° E
STARLINK-42 4.0 21:43:07 10° SSW 21:46:58 44° SE 21:47:53 37° E
CZ-2C R/B 3.7 21:42:46 12° NNE 21:47:00 89° W 21:51:34 10° SSW
STARLINK-75 3.7 21:44:13 10° SSW 21:48:15 56° SE 21:49:21 41° ENE
STARLINK-21 4.0 21:44:42 10° SSW 21:48:33 43° SE 21:49:20 38° E
Cosmos 1666 3.3 21:46:18 10° NNW 21:49:55 54° W 21:53:35 10° S
STARLINK-41 4.0 21:46:14 10° SSW 21:50:12 46° SE 21:51:00 40° E
STARLINK-45 3.7 21:46:27 10° SSW 21:50:24 54° SE 21:51:15 44° E
ARIANE 44L R/B 4.1 21:49:19 10° NNW 21:49:31 11° NNW 21:49:31 11° NNW
Meteor 2-4 Rocket 3.8 21:45:03 10° S 21:50:57 86° W 21:56:53 10° N
CZ-3B R/B 3.8 21:45:12 10° W 21:51:05 31° NNW 21:57:02 18° NNE
STARLINK-64 3.9 21:47:35 10° SSW 21:51:35 49° SE 21:52:21 42° E
Lacrosse 5 2.6 21:47:02 10° SW 21:51:58 50° WNW 21:55:26 19° N
STARLINK-37 3.8 21:48:13 10° SSW 21:52:14 54° SE 21:53:03 45° E
CZ-2C R/B 4.3 21:53:12 16° ESE 21:53:12 16° ESE 21:55:36 10° SE
STARLINK-76 3.8 21:49:33 10° SSW 21:53:29 51° SE 21:54:05 46° E
Cosmos 1603 3.9 21:49:10 10° SSW 21:54:46 70° WNW 21:59:21 16° N
STARLINK 3.7 21:51:01 10° SSW 21:54:57 53° SE 21:55:30 49° E
Cosmos 2084 Rocket 4.1 21:51:01 10° S 21:55:00 36° ESE 21:55:14 36° ESE
NOSS 2-1 (C) 4.1 21:51:00 10° S 21:56:13 43° ESE 21:56:55 40° E
Hubble Space Telescope 1.9 21:52:19 10° W 21:56:14 42° SSW 21:59:33 14° SE
STARLINK-32 3.6 21:52:48 10° SSW 21:56:47 57° SE 21:57:16 52° E
STARLINK-40 3.5 21:54:28 10° SSW 21:58:27 60° SE 21:58:52 56° E
NOSS 2-1 (D) 3.9 21:54:29 10° S 21:59:47 48° ESE 22:00:23 45° E
Cosmos 1741 Rocket 3.9 21:54:45 10° S 22:00:03 69° ESE 22:02:05 37° NNE
STARLINK-44 3.5 21:56:06 10° SSW 22:00:05 64° SE 22:00:27 60° E
Cosmos 1782 Rocket 3.4 21:57:30 15° N 22:01:04 89° WSW 22:05:25 10° S
Cosmos 1743 2.6 22:01:14 63° E 22:01:14 63° E 22:05:05 10° SSE
STARLINK 3.6 21:57:41 10° SSW 22:01:46 59° SE 22:02:03 57° ESE
IRIDIUM 106 4.5 21:57:00 10° S 22:02:14 73° W 22:07:15 11° N
Meteor 1-13 Rocket 4.2 21:57:07 10° S 22:03:03 88° E 22:06:55 22° N
STARLINK-36 3.4 21:59:22 10° SSW 22:03:23 71° SE 22:03:38 68° E
Cosmos 2278 Rocket 2.1 21:58:05 10° N 22:03:38 61° ENE 22:09:12 10° SSE
ADEOS Rocket 3.7 21:58:31 10° N 22:03:47 47° WNW 22:09:25 10° SSW
ATLAS 3B R/B 2.8 21:58:26 10° NNW 22:05:26 80° WSW 22:12:43 10° SSE
STARLINK-35 3.3 22:04:18 10° SSW 22:08:20 84° SE 22:08:25 83° E
STARLINK-51 3.4 22:05:57 10° SW 22:09:59 89° SE 22:10:00 89° E
STARLINK-30 3.4 22:07:37 10° SW 22:11:37 86° W 22:11:37 86° W
STARLINK-33 3.5 22:09:14 10° SW 22:13:10 81° W 22:13:10 81° W
STARLINK-50 3.6 22:10:55 10° SW 22:14:47 76° W 22:14:47 76° W
STARLINK-56 3.8 22:14:15 10° SW 22:17:59 66° W 22:17:59 66° W
Starlink (trailer) 3.9 22:15:54 10° SW 22:19:33 62° W 22:19:33 62° W
STARLINK-38 4.0 22:17:33 10° SW 22:21:09 58° W 22:21:09 58° W
Cosmos 1850 Rocket 4.4 22:17:47 10° SSW 22:22:52 59° WNW 22:24:37 38° NNW
STARLINK-65 4.1 22:19:13 10° SW 22:22:43 54° W 22:22:43 54° W
ARIANE 5 DEB (SYLDA) 4.1 22:21:08 10° WNW 22:27:07 46° NNW 22:27:07 46° NNW
BREEZE-M DEB (TANK) 3.8 22:27:13 10° SW 22:37:06 81° SSW 22:37:06 81° SSW
S3M 3.9 22:39:38 69° NNW 22:40:26 84° W 22:46:33 10° S
Meteor 1-23 Rocket 4.2 22:35:49 10° S 22:41:23 78° W 22:41:23 78° W
ARIANE 5 R/B 4.1 22:41:06 10° W 23:05:45 69° NW 23:05:45 69° NW
H-2A R/B 4.2 23:24:41 10° S 23:26:44 22° SSW 23:26:44 22° SSW
